Location: Unspecified
(43.4354°N, 0.0000°E)
Time: 08:38:36
(UTC+00:00)

EO-88 - Visible Passes

Search period start: 10 August 2020 00:00
Search period end: 20 August 2020 00:00
Orbit: 480 x 491 km, 97.4° (Epoch: 09 August)

Date Brightness Start Highest point End Pass type
(mag) Time Alt. Az. Time Alt. Az. Time Alt. Az.
10 Aug ? 21:32:02 78° NE 21:32:02 78° NE 21:35:29 10° N visible
11 Aug ? 21:07:54 39° ENE 21:07:59 39° ENE 21:11:21 10° N visible
11 Aug ? 22:42:18 13° W 22:42:18 13° W 22:43:29 10° WNW visible
12 Aug ? 20:43:47 20° ENE 20:44:09 21° ENE 20:46:53 10° NNE visible
12 Aug ? 22:18:10 24° WNW 22:18:10 24° WNW 22:20:32 10° NW visible
13 Aug ? 20:19:39 11° ENE 20:20:24 11° ENE 20:21:38 10° NE visible
13 Aug ? 21:54:03 45° WNW 21:54:03 45° WNW 21:56:57 10° NNW visible
14 Aug ? 21:29:55 62° NNE 21:29:55 62° NNE 21:33:02 10° N visible
15 Aug ? 21:05:47 35° ENE 21:05:47 35° ENE 21:08:51 10° N visible
15 Aug ? 22:40:11 13° WNW 22:40:11 13° WNW 22:41:10 10° WNW visible
16 Aug ? 20:41:39 19° ENE 20:41:42 19° ENE 20:44:20 10° NNE visible
16 Aug ? 22:16:03 23° WNW 22:16:03 23° WNW 22:18:07 10° NW visible
17 Aug ? 20:17:32 11° ENE 20:17:57 11° ENE 20:18:50 10° NE visible
17 Aug ? 21:51:55 40° NW 21:51:55 40° NW 21:54:29 10° NNW visible
18 Aug ? 21:27:47 49° NNE 21:27:47 49° NNE 21:30:32 10° N visible
19 Aug ? 21:03:39 31° NE 21:03:39 31° NE 21:06:19 10° N visible
19 Aug ? 22:38:02 13° WNW 22:38:02 13° WNW 22:38:49 10° NW visible
